sat.trackr.live / text

‹ back to catalog

STARLINK-5912

NORAD 56020 · 2023-042AL

PAYLOAD ACTIVE UNKNOWN

§ Identity

Operator
Country
US
Launch date
2023-03-24
Launch site
AFETR
Launch vehicle
Mass (kg)
RCS (m²)

Purposes: comms

External: N2YO · Heavens-Above · Gunter

§ Orbital elements

Epoch: 2026-05-24T20:51:15.703200Z

Period
94.27 min
Inclination
43.0034°
Eccentricity
0.0001607
Mean motion
15.27578502 rev/d
Perigee alt
482.0 km
Apogee alt
484.2 km
Semi-major
6,861.2 km
B*
4.2106e-5
RAAN
335.2174°
Arg perigee
253.4250°
Mean anomaly
106.6426°
Rev number
17,468

§ Raw data

STARLINK-59121 56020U 23042AL  26144.86893175  .00000897  00000+0  42106-4 0  99982 56020  43.0034 335.2174 0001607 253.4250 106.6426 15.27578502174682

JSON: /api/v1/satellites/56020 · /tle

For live sub-satellite position, see the globe view (requires WebGL).

§ Visibility from observer

Set your observer location to see the next 7 days of passes ≥ 10°. The values pass through the URL so the page stays shareable.

No JS? Fill the form by hand. The geolocation button needs JavaScript.